Simultaneous Nadir Overpasses (SNOs) Predictions

Prediction of SNOs between METOP-B and TERRA Satellite Orbit:

Table of predicted SNOs for the next 14.0 days since TLE Epoch: 1/10/2015
Index Date (METOP-B) Time (METOP-B) Lat,Lon (METOP-B) SZA (METOP-B ) Date (TERRA) Time (TERRA) Lat,Lon (TERRA) SZA (TERRA ) Distance(km) Time Diff (sec)
1 01/11/2015 15:13:52 -81.28, 178.22 74.57 01/11/2015 15:14:05 -81.28, 178.34 74.55 2.23 13
2 01/11/2015 16:04:32 81.28, -14.17 105.46 01/11/2015 16:03:32 81.27, -14.25 105.42 1.68 60
3 01/14/2015 10:48:15 -81.27,-115.49 75.08 01/14/2015 10:48:21 -81.27,-115.41 75.07 1.40 6
4 01/14/2015 11:38:54 81.28, 52.51 105.00 01/14/2015 11:37:47 81.28, 52.34 104.95 2.83 67
5 01/17/2015 05:31:58 81.27, 143.45 104.37 01/17/2015 05:33:10 81.27, 143.39 104.40 1.04 72
6 01/
